Regional Weather Roundup
Issued by NWS

Home | Current Version | Previous Version | Graphics & Text | Print | Product List | Glossary On
Versions: 1 2 3 4 5 6 7 8 9 10 11 12 13 14 15 16 17 18 19 20 21 22 23 24 25 26 27 28 29 30 31 32 33 34 35 36 37 38 39 40 41 42 43 44 45 46 47 48 49 50
000
ASUS43 KLMK 200810
RWRKY
KENTUCKY REGIONAL WEATHER ROUNDUP
NATIONAL WEATHER SERVICE LOUISVILLE KY
400 AM EDT WED AUG 20 2014

NOTE "FAIR" INDICATES FEW OR NO CLOUDS BELOW 12,000 FEET
WITH NO SIGNIFICANT WEATHER AND/OR OBSTRUCTIONS TO VISIBILITY.

KYZ001>023-026-027-061>063-070>075-200900-
WESTERN AND SOUTH CENTRAL KENTUCKY

CITY           SKY/WX    TMP DP  RH WIND       PRES   REMARKS
PADUCAH        CLEAR     78  74  87 SW6       29.84S
HENDERSON      CLEAR     70  66  88 CALM      29.85S
OWENSBORO      PTCLDY    74  72  93 CALM      29.87S
HOPKINSVILLE   CLEAR     75  75 100 S2        29.88S
BOWLING GREEN  CLEAR     77  72  84 SW6       29.89R
GLASGOW        CLEAR     72  72 100 CALM      29.90R FOG
$$

KYZ024-025-028>034-038-045-046-053-200900-
NORTH CENTRAL KENTUCKY

CITY           SKY/WX    TMP DP  RH WIND       PRES   REMARKS
LOUISVILLE/SDF CLEAR     76  69  79 SW6       29.86S
LOUISVILLE/LOU MOCLDY    75  68  78 SW3       29.86S
FORT KNOX      PTCLDY    68  63  83 S3        29.87S
$$

KYZ035>037-039>044-047>052-055>060-089>105-200900-
NORTHEAST KENTUCKY

CITY           SKY/WX    TMP DP  RH WIND       PRES   REMARKS
LEXINGTON      CLOUDY    73  66  78 N17G23    29.93R
COVINGTON      CLOUDY    66  64  93 S6        29.87F
FRANKFORT      CLOUDY    71  66  84 NE6       29.90R
$$

KYZ054-064>069-076>088-106>120-200900-
SOUTHEAST KENTUCKY

CITY           SKY/WX    TMP DP  RH WIND       PRES   REMARKS
JACKSON        LGT RAIN  71  69  93 CALM      29.93R FOG
LONDON         PTCLDY    72  68  87 NW3       29.94R
SOMERSET       PTCLDY    70  70 100 NE3       29.93R FOG
MIDDLESBORO    CLOUDY    67  67  98 CALM      29.95S FOG
MONTICELLO     MOSUNNY   71  69  93 CALM      29.93S FOG
$$




USA.gov is the U.S. government's official web portal to all federal, state and local government web resources and services.